| time (UTC) | temp C | wind direction | speed KPH | gust KPH | rain 1hr cm | rain 24hr cm | rain mn cm | humidity % | barometer mb |
| 20260509224756 | 10 | 45 | 6.4 | 11.3 | 0.00 | 2.57 | 2.57 | 71 | 1019.0 |
| 20260509224601 | 10 | 39 | 4.8 | 9.7 | 0.00 | 2.57 | 2.57 | 69 | 1019.1 |
| 20260509223756 | 10 | 47 | 3.2 | 16.1 | 0.00 | 2.57 | 2.57 | 68 | 1019.1 |
| 20260509223301 | 10 | 61 | 6.4 | 16.1 | 0.00 | 2.57 | 2.57 | 68 | 1019.0 |
| 20260509222807 | 10 | 49 | 6.4 | 17.7 | 0.00 | 2.57 | 2.57 | 66 | 1019.1 |
| 20260509222306 | 10 | 68 | 8.0 | 17.7 | 0.00 | 2.57 | 2.57 | 65 | 1019.0 |
| 20260509221755 | 10 | 27 | 8.0 | 14.5 | 0.00 | 2.57 | 2.57 | 65 | 1018.9 |
| 20260509221257 | 10 | 48 | 6.4 | 14.5 | 0.00 | 2.57 | 2.57 | 65 | 1018.8 |
| 20260509221130 | 10 | 45 | 6.4 | 16.1 | 0.00 | 2.57 | 2.57 | 65 | 1018.7 |
| 20260509220255 | 10 | 52 | 4.8 | 16.1 | 0.00 | 2.57 | 2.57 | 65 | 1018.7 |
| 20260509215754 | 11 | 41 | 6.4 | 16.1 | 0.00 | 2.57 | 2.57 | 66 | 1018.5 |
| 20260509215254 | 11 | 59 | 3.2 | 14.5 | 0.00 | 2.57 | 2.57 | 66 | 1018.5 |
| 20260509214754 | 11 | 34 | 3.2 | 14.5 | 0.00 | 2.57 | 2.57 | 66 | 1018.4 |
| 20260509214254 | 11 | 13 | 3.2 | 9.7 | 0.00 | 2.57 | 2.57 | 66 | 1018.4 |
| 20260509213754 | 11 | 69 | 1.6 | 3.2 | 0.00 | 2.57 | 2.57 | 65 | 1018.3 |
| 20260509213254 | 11 | 75 | 1.6 | 3.2 | 0.00 | 2.57 | 2.57 | 65 | 1018.3 |
| 20260509212756 | 11 | 75 | 0.0 | 3.2 | 0.00 | 2.57 | 2.57 | 64 | 1018.4 |
| 20260509212721 | 11 | 75 | 1.6 | 4.8 | 0.00 | 2.57 | 2.57 | 64 | 1018.3 |
| 20260509211754 | 11 | 75 | 1.6 | 4.8 | 0.00 | 2.57 | 2.57 | 65 | 1018.2 |
| 20260509211258 | 11 | 76 | 3.2 | 3.2 | 0.00 | 2.57 | 2.57 | 64 | 1018.1 |
| 20260509210801 | 12 | 76 | 0.0 | 4.8 | 0.00 | 2.57 | 2.57 | 63 | 1018.1 |
| 20260509210255 | 12 | 76 | 1.6 | 4.8 | 0.00 | 2.57 | 2.57 | 63 | 1018.0 |
| 20260509205754 | 12 | 76 | 1.6 | 3.2 | 0.00 | 2.57 | 2.57 | 63 | 1018.1 |
| 20260509205253 | 12 | 76 | 1.6 | 4.8 | 0.00 | 2.57 | 2.57 | 63 | 1017.9 |
| 20260509204752 | 12 | 76 | 1.6 | 6.4 | 0.00 | 2.57 | 2.57 | 63 | 1018.0 |
| 20260509204255 | 12 | 76 | 3.2 | 6.4 | 0.00 | 2.57 | 2.57 | 62 | 1017.9 |
| 20260509203752 | 12 | 76 | 1.6 | 6.4 | 0.00 | 2.57 | 2.57 | 62 | 1017.8 |
| 20260509203611 | 12 | 78 | 3.2 | 4.8 | 0.00 | 2.57 | 2.57 | 62 | 1018.0 |
| 20260509202754 | 13 | 76 | 3.2 | 4.8 | 0.00 | 2.57 | 2.57 | 61 | 1017.9 |
| 20260509202255 | 13 | 76 | 3.2 | 4.8 | 0.00 | 2.57 | 2.57 | 61 | 1017.8 |
| 20260509201753 | 13 | 76 | 3.2 | 6.4 | 0.00 | 2.57 | 2.57 | 60 | 1017.7 |
| 20260509201250 | 13 | 76 | 3.2 | 6.4 | 0.00 | 2.57 | 2.57 | 60 | 1017.7 |
| 20260509200750 | 13 | 76 | 3.2 | 6.4 | 0.00 | 2.57 | 2.57 | 59 | 1017.7 |
| 20260509200253 | 13 | 76 | 1.6 | 4.8 | 0.00 | 2.57 | 2.57 | 59 | 1017.6 |
| 20260509195750 | 14 | 80 | 1.6 | 8.0 | 0.00 | 2.57 | 2.57 | 58 | 1017.6 |
| 20260509195250 | 14 | 80 | 1.6 | 8.0 | 0.00 | 2.57 | 2.57 | 58 | 1017.6 |
| 20260509194751 | 15 | 71 | 3.2 | 6.4 | 0.00 | 2.57 | 2.57 | 57 | 1017.6 |
| 20260509194255 | 15 | 96 | 1.6 | 6.4 | 0.00 | 2.57 | 2.57 | 56 | 1017.5 |
| 20260509193748 | 15 | 96 | 1.6 | 6.4 | 0.00 | 2.57 | 2.57 | 55 | 1017.4 |
| 20260509193246 | 15 | 96 | 1.6 | 6.4 | 0.00 | 2.57 | 2.57 | 54 | 1017.3 |
| 20260509192746 | 16 | 96 | 3.2 | 3.2 | 0.00 | 2.57 | 2.57 | 53 | 1017.2 |
| 20260509192251 | 16 | 94 | 1.6 | 6.4 | 0.00 | 2.57 | 2.57 | 53 | 1017.2 |
| 20260509191748 | 16 | 94 | 3.2 | 6.4 | 0.00 | 2.57 | 2.57 | 52 | 1017.2 |
| 20260509191246 | 16 | 93 | 8.0 | 8.0 | 0.00 | 2.57 | 2.57 | 51 | 1017.2 |
| 20260509190747 | 16 | 93 | 8.0 | 8.0 | 0.00 | 2.57 | 2.57 | 51 | 1017.1 |
| 20260509190245 | 16 | 96 | 3.2 | 4.8 | 0.00 | 2.57 | 2.57 | 51 | 1017.0 |
| 20260509185745 | -17 | 78 | 4.8 | 6.4 | 0.00 | 2.57 | 2.57 | 1017.0 | |
| 20260509185246 | -17 | 75 | 4.8 | 11.3 | 0.00 | 2.57 | 2.57 | 1016.9 | |
| 20260509184746 | -17 | 100 | 9.7 | 11.3 | 0.00 | 2.57 | 2.57 | 1017.0 | |
| 20260509184245 | -17 | 107 | 6.4 | 9.7 | 0.00 | 2.57 | 2.57 | 1016.9 | |
| 20260509183738 | -17 | 120 | 6.4 | 6.4 | 0.00 | 2.57 | 2.57 | 1016.8 | |
| 20260509183239 | 17 | 120 | 6.4 | 14.5 | 0.00 | 2.57 | 2.57 | 50 | 1016.7 |
| 20260509182736 | 17 | 109 | 8.0 | 14.5 | 0.00 | 2.57 | 2.57 | 50 | 1016.7 |
| 20260509182614 | 17 | 121 | 9.7 | 9.7 | 0.00 | 2.57 | 2.57 | 50 | 1016.5 |
| 20260509181737 | 17 | 114 | 3.2 | 3.2 | 0.00 | 2.57 | 2.57 | 50 | 1016.6 |
| 20260509181237 | -17 | 114 | 3.2 | 11.3 | 0.00 | 2.57 | 2.57 | 1016.5 | |
| 20260509180732 | 17 | 106 | 11.3 | 11.3 | 0.00 | 2.57 | 2.57 | 50 | 1016.4 |
| 20260509180232 | 17 | 102 | 0.0 | 0.0 | 0.00 | 2.57 | 2.57 | 50 | 1016.5 |
| 20260509175720 | 18 | 102 | 0.0 | 6.4 | 0.00 | 2.57 | 2.57 | 47 | 1016.4 |
| 20260509175219 | 18 | 79 | 3.2 | 6.4 | 0.00 | 2.57 | 2.57 | 47 | 1016.4 |
| 20260509174719 | 18 | 79 | 1.6 | 16.1 | 0.00 | 2.57 | 2.57 | 47 | 1016.5 |
| 20260509174212 | 18 | 89 | 16.1 | 20.9 | 0.00 | 2.57 | 2.57 | 47 | 1016.5 |
| 20260509173708 | 18 | 68 | 17.7 | 20.9 | 0.00 | 2.57 | 2.57 | 47 | 1016.4 |
| 20260509173204 | 18 | 86 | 6.4 | 14.5 | 0.00 | 2.57 | 2.57 | 47 | 1016.4 |
| 20260509172955 | 19 | 0.0 | 0.0 | 0.00 | 2.57 | 2.57 | 47 | 1016.4 | |
| 20260509172206 | 19 | 99 | 9.7 | 9.7 | 0.00 | 2.57 | 2.57 | 47 | 1016.5 |
| 20260509171705 | 19 | 99 | 9.7 | 9.7 | 0.00 | 2.57 | 2.57 | 47 | 1016.4 |
| 20260509171207 | 20 | 58 | 8.0 | 8.0 | 0.00 | 2.57 | 2.57 | 47 | 1016.4 |
| 20260509170703 | -17 | 82 | 11.3 | 16.1 | 0.00 | 2.57 | 2.57 | 1016.4 | |
| 20260509170203 | -17 | 130 | 9.7 | 16.1 | 0.00 | 2.57 | 2.57 | 1016.5 | |
| 20260509165702 | 20 | 61 | 8.0 | 8.0 | 0.00 | 2.57 | 2.57 | 47 | 1016.6 |
| 20260509165453 | 20 | 61 | 8.0 | 9.7 | 0.00 | 2.57 | 2.57 | 47 | 1016.6 |
| 20260509164702 | 20 | 92 | 8.0 | 9.7 | 0.00 | 2.57 | 2.57 | 47 | 1016.6 |
| 20260509164202 | -17 | 49 | 8.0 | 9.7 | 0.00 | 2.57 | 2.57 | 1016.6 | |
| 20260509163702 | -17 | 78 | 6.4 | 9.7 | 0.00 | 2.57 | 2.57 | 1016.5 | |
| 20260509163154 | -17 | 97 | 4.8 | 9.7 | 0.00 | 2.57 | 2.57 | 1016.5 | |
| 20260509162652 | 20 | 68 | 11.3 | 11.3 | 0.00 | 2.57 | 2.57 | 43 | 1016.6 |
| 20260509162151 | 20 | 72 | 9.7 | 11.3 | 0.00 | 2.57 | 2.57 | 43 | 1016.7 |
| 20260509161652 | 21 | 97 | 6.4 | 8.0 | 0.00 | 2.57 | 2.57 | 43 | 1016.6 |
| 20260509161200 | 21 | 99 | 3.2 | 4.8 | 0.00 | 2.57 | 2.57 | 43 | 1016.7 |
| 20260509160649 | -17 | 96 | 3.2 | 8.0 | 0.00 | 2.57 | 2.57 | 1016.7 | |
| 20260509160153 | -17 | 100 | 6.4 | 14.5 | 0.00 | 2.57 | 2.57 | 1016.6 | |
| 20260509155650 | 21 | 63 | 8.0 | 14.5 | 0.00 | 2.57 | 2.57 | 42 | 1016.7 |
| 20260509155150 | 21 | 58 | 6.4 | 6.4 | 0.00 | 2.57 | 2.57 | 42 | 1016.7 |
| 20260509154647 | -17 | 58 | 6.4 | 8.0 | 0.00 | 2.57 | 2.57 | 1016.8 | |
| 20260509154147 | -17 | 87 | 8.0 | 9.7 | 0.00 | 2.57 | 2.57 | 1016.7 | |
| 20260509153649 | -17 | 52 | 8.0 | 9.7 | 0.00 | 2.57 | 2.57 | 1016.8 | |
| 20260509153142 | 21 | 0.0 | 0.0 | 0.00 | 2.57 | 2.57 | 40 | 1016.8 | |
| 20260509152634 | 21 | 62 | 8.0 | 8.0 | 0.00 | 2.57 | 2.57 | 40 | 1016.7 |
| 20260509152437 | 21 | 62 | 8.0 | 8.0 | 0.00 | 2.57 | 2.57 | 40 | 1016.8 |
| 20260509151932 | 21 | 52 | 8.0 | 8.0 | 0.00 | 2.57 | 2.57 | 40 | 1016.7 |
| 20260509151121 | 22 | 125 | 6.4 | 8.0 | 0.00 | 2.57 | 2.57 | 41 | 1016.6 |
| 20260509150611 | 22 | 116 | 8.0 | 8.0 | 0.00 | 2.57 | 2.57 | 41 | 1016.7 |
| 20260509150111 | 22 | 73 | 6.4 | 6.4 | 0.00 | 2.57 | 2.57 | 41 | 1016.6 |
| 20260509145607 | 22 | 61 | 1.6 | 4.8 | 0.00 | 2.57 | 2.57 | 41 | 1016.4 |
| 20260509145109 | -17 | 66 | 1.6 | 9.7 | 0.00 | 2.57 | 2.57 | 1016.5 | |
| 20260509144915 | -17 | 83 | 3.2 | 9.7 | 0.00 | 2.57 | 2.57 | 1016.4 | |
| 20260509144107 | 23 | 100 | 8.0 | 8.0 | 0.00 | 2.57 | 2.57 | 41 | 1016.4 |
| 20260509143604 | 23 | 99 | 6.4 | 8.0 | 0.00 | 2.57 | 2.57 | 41 | 1016.4 |
| 20260509143105 | 23 | 99 | 6.4 | 8.0 | 0.00 | 2.57 | 2.57 | 44 | 1016.5 |
| 20260509142607 | 23 | 65 | 3.2 | 6.4 | 0.00 | 2.57 | 2.57 | 44 | 1016.4 |
| 20260509142525 | -17 | 0.0 | 0.0 | 0.00 | 2.57 | 2.57 | 1016.5 | ||
| 20260509141612 | 22 | 58 | 9.7 | 14.5 | 0.00 | 2.57 | 2.57 | 44 | 1016.5 |
| 20260509141112 | 22 | 45 | 14.5 | 14.5 | 0.00 | 2.57 | 2.57 | 44 | 1016.5 |
| 20260509140610 | 22 | 76 | 8.0 | 16.1 | 0.00 | 2.57 | 2.57 | 44 | 1016.5 |
| 20260509140116 | 22 | 90 | 16.1 | 16.1 | 0.00 | 2.57 | 2.57 | 44 | 1016.6 |
| 20260509135916 | 22 | 93 | 3.2 | 8.0 | 0.00 | 2.57 | 2.57 | 44 | 1016.6 |
| 20260509135101 | 23 | 93 | 3.2 | 11.3 | 0.00 | 2.57 | 2.57 | 47 | 1016.8 |
| 20260509134602 | 23 | 73 | 11.3 | 11.3 | 0.00 | 2.57 | 2.57 | 47 | 1016.8 |
| 20260509134106 | 23 | 62 | 8.0 | 8.0 | 0.00 | 2.57 | 2.57 | 47 | 1016.9 |
| 20260509133604 | -17 | 113 | 3.2 | 3.2 | 0.00 | 2.57 | 2.57 | 1016.9 | |
| 20260509133104 | -17 | 113 | 3.2 | 3.2 | 0.00 | 2.57 | 2.57 | 1016.9 | |
| 20260509132603 | -17 | 83 | 8.0 | 8.0 | 0.00 | 2.57 | 2.57 | 1017.0 | |
| 20260509132107 | 22 | 83 | 8.0 | 8.0 | 0.00 | 2.57 | 2.57 | 42 | 1017.0 |
| 20260509131758 | -17 | 51 | 4.8 | 9.7 | 0.00 | 2.57 | 2.57 | 1017.0 | |
| 20260509131625 | 22 | 45 | 6.4 | 8.0 | 0.00 | 2.57 | 2.57 | 42 | 1017.0 |
| 20260509130552 | -17 | 24 | 8.0 | 11.3 | 0.00 | 2.57 | 2.57 | 1017.0 | |
| 20260509130056 | -17 | 61 | 6.4 | 11.3 | 0.00 | 2.57 | 2.57 | 1017.1 | |
| 20260509125547 | 22 | 41 | 6.4 | 17.7 | 0.00 | 2.57 | 2.57 | 45 | 1017.1 |
| 20260509125048 | 22 | 71 | 12.9 | 17.7 | 0.00 | 2.57 | 2.57 | 45 | 1017.2 |
| 20260509124541 | -17 | 51 | 8.0 | 19.3 | 0.00 | 2.57 | 2.57 | 1017.2 | |
| 20260509124041 | -17 | 52 | 11.3 | 19.3 | 0.00 | 2.57 | 2.57 | 1017.3 | |
| 20260509123835 | -17 | 78 | 12.9 | 14.5 | 0.00 | 2.57 | 2.57 | 1017.4 | |
| 20260509123051 | 21 | 49 | 4.8 | 4.8 | 0.00 | 2.57 | 2.57 | 50 | 1017.3 |
| 20260509122537 | 21 | 49 | 4.8 | 11.3 | 0.00 | 2.57 | 2.57 | 50 | 1017.5 |
| 20260509122041 | 22 | 51 | 11.3 | 11.3 | 0.00 | 2.57 | 2.57 | 50 | 1017.6 |
| 20260509121841 | -17 | 7 | 4.8 | 8.0 | 0.00 | 2.57 | 2.57 | 1017.5 | |
| 20260509121051 | 21 | 62 | 4.8 | 16.1 | 0.00 | 2.57 | 2.57 | 48 | 1017.6 |
| 20260509120535 | 21 | 121 | 16.1 | 17.7 | 0.00 | 2.57 | 2.57 | 48 | 1017.6 |
| 20260509120439 | 21 | 127 | 12.9 | 17.7 | 0.00 | 2.57 | 2.57 | 48 | 1017.6 |
| 20260509115532 | -17 | 54 | 6.4 | 16.1 | 0.00 | 2.57 | 0.00 | 1017.6 | |
| 20260509115032 | -17 | 49 | 14.5 | 16.1 | 0.00 | 2.57 | 0.00 | 1017.7 | |
| 20260509114531 | -17 | 58 | 4.8 | 4.8 | 0.00 | 2.57 | 0.00 | 1017.8 | |
| 20260509114147 | 21 | 92 | 3.2 | 11.3 | 2.57 | 2.57 | 0.00 | 51 | 1017.9 |
| 20260509114126 | 21 | 63 | 3.2 | 11.3 | 1.91 | 2.57 | 0.00 | 51 | 1017.8 |
| 20260509113048 | -17 | 83 | 6.4 | 9.7 | 2.57 | 2.57 | 0.00 | 1018.0 | |
| 20260509112816 | -17 | 55 | 6.4 | 8.0 | 2.57 | 2.57 | 0.00 | 1018.1 | |
| 20260509112316 | -17 | 102 | 4.8 | 6.4 | 2.57 | 2.57 | 0.00 | 1018.0 | |
| 20260509111532 | 20 | 118 | 4.8 | 6.4 | 2.57 | 2.57 | 2.57 | 48 | 1018.1 |
| 20260509111314 | 20 | 120 | 3.2 | 3.2 | 2.57 | 2.57 | 2.57 | 48 | 1018.2 |
| 20260509110532 | -17 | 124 | 6.4 | 8.0 | 2.57 | 2.57 | 2.57 | 1018.2 | |
| 20260509110054 | 20 | 124 | 6.4 | 8.0 | 2.57 | 2.57 | 2.57 | 50 | 1018.2 |
| 20260509105520 | 20 | 100 | 9.7 | 14.5 | 2.57 | 0.00 | 2.57 | 50 | 1018.2 |
| 20260509105029 | 20 | 109 | 8.0 | 14.5 | 2.57 | 0.00 | 2.57 | 47 | 1018.3 |
| 20260509104520 | 20 | 47 | 6.4 | 11.3 | 2.57 | 0.00 | 0.66 | 47 | 1018.4 |
| 20260509104030 | 20 | 141 | 8.0 | 11.3 | 0.66 | 0.00 | 0.00 | 47 | 1018.4 |
| 20260509103519 | 20 | 124 | 8.0 | 11.3 | 0.00 | 0.00 | 0.00 | 50 | 1018.5 |
| 20260509103043 | 20 | 104 | 11.3 | 11.3 | 0.00 | 0.00 | 0.00 | 50 | 1018.4 |
| 20260509102800 | 20 | 58 | 9.7 | 9.7 | 0.00 | 0.00 | 0.00 | 52 | 1018.5 |
| 20260509102031 | 20 | 58 | 9.7 | 17.7 | 0.00 | 0.00 | 0.00 | 52 | 1018.5 |
| 20260509101533 | 18 | 86 | 17.7 | 17.7 | 0.00 | 0.00 | 0.00 | 52 | 1018.5 |
| 20260509101031 | 18 | 130 | 1.6 | 6.4 | 0.00 | 0.00 | 0.00 | 52 | 1018.5 |
| 20260509100519 | 18 | 130 | 1.6 | 8.0 | 0.00 | 0.00 | 0.00 | 54 | 1018.6 |
| 20260509100014 | 18 | 89 | 6.4 | 14.5 | 0.00 | 0.00 | 0.00 | 54 | 1018.4 |
| 20260509095505 | -17 | 65 | 11.3 | 14.5 | 0.00 | 0.00 | 0.00 | 1018.5 | |
| 20260509095326 | 18 | 100 | 6.4 | 14.5 | 0.00 | 0.00 | 0.00 | 57 | 1018.5 |
| 20260509094840 | -17 | 116 | 8.0 | 11.3 | 0.00 | 0.00 | 0.00 | 1018.6 | |
| 20260509094652 | 18 | 97 | 9.7 | 11.3 | 0.00 | 0.00 | 0.00 | 57 | 1018.6 |
| 20260509093448 | -17 | 141 | 6.4 | 9.7 | 0.00 | 0.00 | 0.00 | 1018.6 | |
| 20260509093414 | -17 | 140 | 8.0 | 9.7 | 0.00 | 0.00 | 0.00 | 1018.6 | |
| 20260509093334 | 17 | 111 | 6.4 | 11.3 | 0.00 | 0.00 | 0.00 | 61 | 1018.7 |
| 20260509091954 | 17 | 111 | 6.4 | 16.1 | 0.00 | 0.00 | 0.00 | 61 | 1018.7 |
| 20260509091445 | 17 | 87 | 12.9 | 16.1 | 0.00 | 0.00 | 0.00 | 61 | 1018.7 |
| 20260509090942 | 17 | 69 | 8.0 | 9.7 | 0.00 | 0.00 | 0.00 | 61 | 1018.7 |
| 20260509090445 | 16 | 83 | 6.4 | 9.7 | 0.00 | 0.00 | 0.00 | 63 | 1018.7 |
| 20260509085938 | 16 | 63 | 4.8 | 9.7 | 0.00 | 0.00 | 0.00 | 63 | 1018.8 |
| 20260509085440 | 16 | 85 | 6.4 | 9.7 | 0.00 | 0.00 | 0.00 | 65 | 1018.8 |
| 20260509084931 | 16 | 73 | 6.4 | 11.3 | 0.00 | 0.00 | 0.00 | 66 | 1018.8 |
| 20260509084747 | 16 | 76 | 11.3 | 11.3 | 0.00 | 0.00 | 0.00 | 66 | 1018.8 |
| 20260509083929 | 15 | 111 | 6.4 | 9.7 | 0.00 | 0.00 | 0.00 | 66 | 1018.8 |
| 20260509083757 | 15 | 69 | 6.4 | 9.7 | 0.00 | 0.00 | 0.00 | 69 | 1018.8 |
| 20260509083342 | 15 | 137 | 4.8 | 9.7 | 0.00 | 0.00 | 0.00 | 72 | 1018.8 |
| 20260509082758 | 15 | 63 | 4.8 | 6.4 | 0.00 | 0.00 | 0.00 | 72 | 1018.8 |
| 20260509082248 | 14 | 131 | 4.8 | 8.0 | 0.00 | 0.00 | 0.00 | 72 | 1018.7 |
| 20260509081429 | 14 | 45 | 6.4 | 14.5 | 0.00 | 0.00 | 0.00 | 71 | 1018.7 |
| 20260509080929 | 14 | 54 | 6.4 | 14.5 | 0.00 | 0.00 | 0.00 | 72 | 1018.8 |
| 20260509080424 | 13 | 107 | 11.3 | 11.3 | 0.00 | 0.00 | 0.00 | 77 | 1018.7 |
| 20260509080155 | 13 | 75 | 4.8 | 11.3 | 0.00 | 0.00 | 0.00 | 78 | 1018.8 |
| 20260509080011 | 13 | 73 | 3.2 | 6.4 | 0.00 | 0.00 | 0.00 | 77 | 1018.7 |
| 20260509074922 | 12 | 56 | 11.3 | 11.3 | 0.00 | 0.00 | 0.00 | 80 | 1018.8 |
| 20260509074433 | 12 | 75 | 6.4 | 9.7 | 0.00 | 0.00 | 0.00 | 81 | 1018.8 |
| 20260509074305 | 12 | 99 | 4.8 | 11.3 | 0.00 | 0.00 | 0.00 | 82 | 1018.7 |
| 20260509073415 | 11 | 82 | 6.4 | 11.3 | 0.00 | 0.00 | 0.00 | 84 | 1018.7 |
| 20260509072908 | 11 | 121 | 4.8 | 8.0 | 0.00 | 0.00 | 0.00 | 85 | 1018.7 |
| 20260509072409 | 11 | 54 | 6.4 | 14.5 | 0.00 | 0.00 | 0.00 | 86 | 1018.6 |
| 20260509072316 | 11 | 39 | 4.8 | 14.5 | 0.00 | 0.00 | 0.00 | 88 | 1018.8 |
| 20260509071810 | 11 | 47 | 4.8 | 8.0 | 0.00 | 0.00 | 0.00 | 90 | 1018.7 |
| 20260509070908 | 10 | 62 | 8.0 | 11.3 | 0.00 | 0.00 | 0.00 | 90 | 1018.7 |
| 20260509070704 | -17 | 66 | 6.4 | 11.3 | 0.00 | 0.00 | 0.00 | 1018.7 | |
| 20260509065904 | 10 | 55 | 11.3 | 11.3 | 0.00 | 0.00 | 0.00 | 92 | 1018.7 |
| 20260509065409 | 10 | 75 | 6.4 | 9.7 | 0.00 | 0.00 | 0.00 | 92 | 1018.6 |
| 20260509064905 | 8 | 97 | 8.0 | 9.7 | 0.00 | 0.00 | 0.00 | 92 | 1018.6 |
| 20260509064405 | 8 | 71 | 4.8 | 9.7 | 0.00 | 0.00 | 0.00 | 92 | 1018.6 |
| 20260509064309 | 8 | 55 | 4.8 | 8.0 | 0.00 | 0.00 | 0.00 | 93 | 1018.6 |
| 20260509063410 | 8 | 47 | 6.4 | 8.0 | 0.00 | 0.00 | 0.00 | 93 | 1018.6 |
| 20260509062906 | 8 | 55 | 6.4 | 8.0 | 0.00 | 0.00 | 0.00 | 93 | 1018.6 |
| 20260509062404 | 7 | 51 | 1.6 | 4.8 | 0.00 | 0.00 | 0.00 | 92 | 1018.6 |
| 20260509061903 | 7 | 282 | 0.0 | 0.0 | 0.00 | 0.00 | 0.00 | 92 | 1018.7 |
| 20260509061404 | 7 | 282 | 0.0 | 0.0 | 0.00 | 0.00 | 0.00 | 92 | 1018.7 |
| 20260509060903 | 6 | 282 | 0.0 | 0.0 | 0.00 | 0.00 | 0.00 | 92 | 1018.7 |
| 20260509060401 | 6 | 282 | 0.0 | 0.0 | 0.00 | 0.00 | 0.00 | 92 | 1018.5 |
| 20260509055902 | 6 | 282 | 0.0 | 0.0 | 0.00 | 0.00 | 0.00 | 92 | 1018.5 |
| 20260509055702 | 5 | 282 | 0.0 | 0.0 | 0.00 | 0.00 | 0.00 | 92 | 1018.5 |
| 20260509054900 | 5 | 282 | 0.0 | 0.0 | 0.00 | 0.00 | 0.00 | 91 | 1018.5 |
| 20260509054400 | 5 | 282 | 0.0 | 0.0 | 0.00 | 0.00 | 0.00 | 91 | 1018.5 |
| 20260509053903 | 4 | 282 | 0.0 | 0.0 | 0.00 | 0.00 | 0.00 | 90 | 1018.5 |
| 20260509053358 | 4 | 282 | 0.0 | 0.0 | 0.00 | 0.00 | 0.00 | 90 | 1018.4 |
| 20260509052900 | 3 | 282 | 0.0 | 0.0 | 0.00 | 0.00 | 0.00 | 89 | 1018.4 |
| 20260509052400 | 3 | 282 | 0.0 | 0.0 | 0.00 | 0.00 | 0.00 | 89 | 1018.4 |
| 20260509051858 | 3 | 282 | 0.0 | 0.0 | 0.00 | 0.00 | 0.00 | 88 | 1018.5 |
| 20260509051355 | 3 | 282 | 0.0 | 0.0 | 0.00 | 0.00 | 0.00 | 88 | 1018.4 |
| 20260509050854 | 3 | 282 | 0.0 | 0.0 | 0.00 | 0.00 | 0.00 | 88 | 1018.4 |
| 20260509050354 | 3 | 282 | 0.0 | 0.0 | 0.00 | 0.00 | 0.00 | 87 | 1018.3 |
| 20260509045853 | 3 | 282 | 0.0 | 0.0 | 0.00 | 0.00 | 0.00 | 87 | 1018.3 |
| 20260509045355 | 3 | 282 | 0.0 | 0.0 | 0.00 | 0.00 | 0.00 | 87 | 1018.3 |
| 20260509044854 | 3 | 282 | 0.0 | 0.0 | 0.00 | 0.00 | 0.00 | 87 | 1018.4 |
| 20260509044352 | 3 | 282 | 0.0 | 0.0 | 0.00 | 0.00 | 0.00 | 87 | 1018.4 |
| 20260509044212 | 3 | 282 | 0.0 | 0.0 | 0.00 | 0.00 | 0.00 | 87 | 1018.4 |
| 20260509043654 | 3 | 282 | 0.0 | 0.0 | 0.00 | 0.00 | 0.00 | 87 | 1018.4 |
| 20260509042848 | 3 | 282 | 0.0 | 0.0 | 0.00 | 0.00 | 0.00 | 87 | 1018.4 |
| 20260509042347 | 3 | 282 | 0.0 | 0.0 | 0.00 | 0.00 | 0.00 | 87 | 1018.4 |
| 20260509041847 | 3 | 125 | 0.0 | 0.0 | 0.00 | 0.00 | 0.00 | 87 | 1018.4 |
| 20260509041348 | 3 | 125 | 0.0 | 0.0 | 0.00 | 0.00 | 0.00 | 87 | 1018.4 |
| 20260509040845 | 3 | 125 | 0.0 | 0.0 | 0.00 | 0.00 | 0.00 | 87 | 1018.4 |
| 20260509040647 | 3 | 125 | 0.0 | 0.0 | 0.00 | 0.00 | 0.00 | 87 | 1018.4 |
| 20260509035846 | 3 | 125 | 0.0 | 0.0 | 0.00 | 0.00 | 0.00 | 87 | 1018.4 |
| 20260509035346 | 3 | 125 | 0.0 | 0.0 | 0.00 | 0.00 | 0.00 | 87 | 1018.4 |
| 20260509034846 | 3 | 125 | 0.0 | 0.0 | 0.00 | 0.00 | 0.00 | 87 | 1018.4 |
| 20260509034347 | 3 | 125 | 0.0 | 0.0 | 0.00 | 0.00 | 0.00 | 87 | 1018.4 |
| 20260509033942 | 4 | 125 | 0.0 | 0.0 | 0.00 | 0.00 | 0.00 | 86 | 1018.4 |
| 20260509033924 | 3 | 125 | 0.0 | 0.0 | 0.00 | 0.00 | 0.00 | 86 | 1018.5 |
| 20260509032844 | 4 | 125 | 0.0 | 0.0 | 0.00 | 0.00 | 0.00 | 86 | 1018.5 |
| 20260509032346 | 4 | 125 | 0.0 | 0.0 | 0.00 | 0.00 | 0.00 | 86 | 1018.4 |
| 20260509031849 | 4 | 125 | 0.0 | 0.0 | 0.00 | 0.00 | 0.00 | 86 | 1018.4 |
| 20260509031344 | 4 | 125 | 0.0 | 0.0 | 0.00 | 0.00 | 0.00 | 85 | 1018.5 |
| 20260509031204 | 4 | 125 | 0.0 | 0.0 | 0.00 | 0.00 | 0.00 | 85 | 1018.5 |
| 20260509030344 | 4 | 125 | 0.0 | 0.0 | 0.00 | 0.00 | 0.00 | 85 | 1018.5 |
| 20260509025844 | 4 | 125 | 0.0 | 0.0 | 0.00 | 0.00 | 0.00 | 85 | 1018.5 |
| 20260509025649 | 4 | 125 | 0.0 | 0.0 | 0.00 | 0.00 | 0.00 | 85 | 1018.6 |
| 20260509024843 | 4 | 125 | 0.0 | 0.0 | 0.00 | 0.00 | 0.00 | 85 | 1018.6 |
| 20260509024345 | 4 | 125 | 0.0 | 0.0 | 0.00 | 0.00 | 0.00 | 85 | 1018.5 |
| 20260509023844 | 4 | 125 | 0.0 | 0.0 | 0.00 | 0.00 | 0.00 | 85 | 1018.5 |
| 20260509023343 | 4 | 125 | 0.0 | 0.0 | 0.00 | 0.00 | 0.00 | 85 | 1018.6 |
| 20260509022844 | 5 | 125 | 0.0 | 0.0 | 0.00 | 0.00 | 0.00 | 85 | 1018.5 |
| 20260509022344 | 5 | 125 | 0.0 | 0.0 | 0.00 | 0.00 | 0.00 | 84 | 1018.6 |
| 20260509021844 | 5 | 125 | 0.0 | 0.0 | 0.00 | 0.00 | 0.00 | 85 | 1018.6 |
| 20260509021345 | 5 | 125 | 0.0 | 0.0 | 0.00 | 0.00 | 0.00 | 85 | 1018.6 |
| 20260509021206 | 5 | 125 | 0.0 | 0.0 | 0.00 | 0.00 | 0.00 | 85 | 1018.6 |
| 20260509020343 | 5 | 125 | 0.0 | 0.0 | 0.00 | 0.00 | 0.00 | 85 | 1018.6 |
| 20260509015844 | 5 | 125 | 0.0 | 0.0 | 0.00 | 0.00 | 0.00 | 84 | 1018.6 |
| 20260509015344 | 5 | 125 | 0.0 | 0.0 | 0.00 | 0.00 | 0.00 | 84 | 1018.6 |
| 20260509014844 | 5 | 125 | 0.0 | 0.0 | 0.00 | 0.00 | 0.00 | 84 | 1018.6 |
| 20260509014345 | 5 | 125 | 0.0 | 0.0 | 0.00 | 0.00 | 0.00 | 84 | 1018.6 |
| 20260509014205 | 5 | 125 | 0.0 | 0.0 | 0.00 | 0.00 | 0.00 | 83 | 1018.7 |
| 20260509013648 | 5 | 125 | 0.0 | 0.0 | 0.00 | 0.00 | 0.00 | 83 | 1018.6 |
| 20260509012845 | 5 | 125 | 0.0 | 0.0 | 0.00 | 0.00 | 0.00 | 83 | 1018.6 |
| 20260509012347 | 5 | 125 | 0.0 | 0.0 | 0.00 | 0.00 | 0.00 | 83 | 1018.6 |
| 20260509011843 | 5 | 125 | 0.0 | 0.0 | 0.00 | 0.00 | 0.00 | 83 | 1018.6 |
| 20260509011345 | 5 | 125 | 0.0 | 0.0 | 0.00 | 0.00 | 0.00 | 83 | 1018.7 |
| 20260509010845 | 6 | 125 | 0.0 | 0.0 | 0.00 | 0.00 | 0.00 | 82 | 1018.7 |
| 20260509010346 | 6 | 125 | 0.0 | 0.0 | 0.00 | 0.00 | 0.00 | 82 | 1018.7 |
| 20260509010226 | 6 | 125 | 0.0 | 0.0 | 0.00 | 0.00 | 0.00 | 82 | 1018.7 |
| 20260509005343 | 6 | 125 | 0.0 | 0.0 | 0.00 | 0.00 | 0.00 | 82 | 1018.7 |
| 20260509004842 | 6 | 125 | 0.0 | 0.0 | 0.00 | 0.00 | 0.00 | 82 | 1018.7 |
| 20260509004343 | 6 | 125 | 0.0 | 0.0 | 0.00 | 0.00 | 0.00 | 82 | 1018.7 |
| 20260509003846 | 6 | 125 | 0.0 | 0.0 | 0.00 | 0.00 | 0.00 | 81 | 1018.7 |
| 20260509003344 | 6 | 125 | 0.0 | 0.0 | 0.00 | 0.00 | 0.00 | 81 | 1018.7 |
| 20260509002843 | 6 | 125 | 0.0 | 0.0 | 0.00 | 0.00 | 0.00 | 81 | 1018.6 |
| 20260509002645 | 6 | 125 | 0.0 | 0.0 | 0.00 | 0.00 | 0.00 | 81 | 1018.7 |
| 20260509001849 | 6 | 125 | 0.0 | 0.0 | 0.00 | 0.00 | 0.00 | 81 | 1018.6 |
| 20260509001346 | 7 | 125 | 0.0 | 0.0 | 0.00 | 0.00 | 0.00 | 81 | 1018.7 |
| 20260509001201 | 7 | 125 | 0.0 | 0.0 | 0.00 | 0.00 | 0.00 | 81 | 1018.6 |
| 20260509000638 | 7 | 125 | 0.0 | 0.0 | 0.00 | 0.00 | 0.00 | 80 | 1018.7 |
| 20260508235842 | 7 | 125 | 0.0 | 0.0 | 0.00 | 0.00 | 0.00 | 80 | 1018.7 |
| 20260508235342 | 7 | 125 | 0.0 | 0.0 | 0.00 | 0.00 | 0.00 | 80 | 1018.7 |
| 20260508234844 | 7 | 125 | 0.0 | 0.0 | 0.00 | 0.00 | 0.00 | 80 | 1018.8 |
| 20260508234650 | 7 | 125 | 0.0 | 0.0 | 0.00 | 0.00 | 0.00 | 80 | 1018.8 |
| 20260508233842 | 7 | 125 | 0.0 | 0.0 | 0.00 | 0.00 | 0.00 | 80 | 1018.8 |
| 20260508233343 | 7 | 125 | 0.0 | 0.0 | 0.00 | 0.00 | 0.00 | 79 | 1018.8 |
| 20260508232842 | 8 | 125 | 0.0 | 0.0 | 0.00 | 0.00 | 0.00 | 79 | 1018.8 |
| 20260508232342 | 8 | 125 | 0.0 | 0.0 | 0.00 | 0.00 | 0.00 | 79 | 1018.9 |
| 20260508231843 | 8 | 125 | 0.0 | 0.0 | 0.00 | 0.00 | 0.00 | 78 | 1018.8 |
| 20260508231341 | 8 | 125 | 0.0 | 0.0 | 0.00 | 0.00 | 0.00 | 78 | 1018.8 |
| 20260508230841 | 8 | 125 | 0.0 | 0.0 | 0.00 | 0.00 | 0.00 | 78 | 1018.7 |
| 20260508230343 | 8 | 125 | 0.0 | 0.0 | 0.00 | 0.00 | 0.00 | 77 | 1018.8 |
| 20260508225841 | 8 | 125 | 0.0 | 0.0 | 0.00 | 0.00 | 0.00 | 77 | 1018.8 |
| 20260508225342 | 9 | 125 | 0.0 | 0.0 | 0.00 | 0.00 | 0.00 | 76 | 1018.8 |